www.pogodaiklimat.ru

Погода и климат >> Архив погоды >> Россия >> Красноярский край >> Шалинское


ПОГОДА в Шалинском

  • Прогноз погоды в Шалинском
  • Монитор погоды в Шалинском

АРХИВ ПОГОДЫ в Шалинском

Время (UTC), дата Ветер
(напр.,м/с)
 
Видим.   Явления Облачность Т
(С)
Тd
(С)
f
(%)
Тe
(С)
Тes
(С)
Комфортность P
(гПа)
Po
(гПа)
Тmin
(С)
Tmax
(С)
R
(мм)
R24
(мм)
S
(см)
12 12.02 штиль 0 50 км 8/3 600 м
[Cb cap Ci fib]
-16.6 -23.5 55 -17 -17 1033.9 980.4 -9.4
15 12.02 ЮЗ 2 50 км 4/0
[Ci fib]
-20.9 -24.9 70 -27 -27 1035.8 981.4
18 12.02 ЮЗ 1 50 км 6/0
[Ci fib]
-22.0 -24.6 79 -25 -25 1036.4 981.7
21 12.02 штиль 0 50 км 10/10 600 м
[Cb cap]
-18.6 -21.9 75 -19 -19 1036.6 982.6
00 13.02 ЮЗ 2 50 км 10/10 600 м
[Cb cap]
-14.0 -19.2 65 -19 -19 1036.2 983.1 -24.0 11
03 13.02 ЮЗ 1 50 км 3/0
[Ac lent Ci fib]
-14.6 -18.9 70 -17 -16 1037.7 984.4
06 13.02 ЮЗ 4 50 км 9/4 600 м
[Cb cap Ci fib]
-10.5 -14.9 70 -17 -16 1036.4 984.2
09 13.02 ЮЗ 3 50 км 9/3 600 м
[Cb cap Ac trans Ci fib]
-8.2 -13.9 63 -14 -14 1034.9 983.1
12 13.02 ЮЗ 2 50 км 9/3 600 м
[Cb cap Ac trans Ci fib]
-9.6 -13.7 72 -14 -14 1035.6 983.6 -7.0
15 13.02 ЮЗ 2 50 км 9/8 600 м
[Cb cap Ci fib]
-9.9 -14.1 71 -14 -14 1035.5 983.3
18 13.02 Ю 2 50 км 9/6 600 м
[Cb cap Ci fib]
-9.6 -14.8 66 -14 -14 1035.2 983.2
21 13.02 Ю 1 50 км 9/4 600 м
[Cb cap Ci fib]
-11.1 -14.7 75 -13 -13 1035.6 983.2
00 14.02 ЮЗ 1 50 км 6/0
[Ci fib]
-13.7 -15.7 85 -16 -16 1039.5 983.3 -14.6 11
03 14.02 З 1 50 км 10/0
[Cs]
-16.0 -17.3 90 -19 -17 1038.1 984.6 -16.0
06 14.02 ЮЗ 2 50 км 6/1 1000 м
[Cu hum Ci fib]
-6.6 -15.6 49 -10 -8 1034.7 983.3
09 14.02 З 4 50 км 9/0
[Ac trans Ci fib]
-5.6 -15.0 47 -12 -11 1034.4 983.2
12 14.02 Ю 1 50 км 9/0
[Ac trans Ci fib]
-7.6 -12.6 67 -10 -10 1034.9 983.3 -4.5
15 14.02 З 2 50 км 3/3 1000 м
[Cu hum]
-9.5 -14.1 69 -14 -14 1035.5 983.5
18 14.02 ЮЗ 3 50 км ясно -12.6 -14.6 85 -19 -19 1036.0 983.4
21 14.02 ЮЗ 1 50 км 1/0
[Ac trans]
-17.0 -18.2 90 -20 -20 1036.8 983.1
00 15.02 ЮЗ 1 50 км ясно -19.1 -21.0 85 -22 -22 1036.3 982.3 -19.1 11
03 15.02 З 1 50 км 4/3 1000 м
[Sc Ac trans]
-14.6 -15.9 90 -17 -16 1036.8 983.7 -19.9
06 15.02 ЮЗ 5 50 км 9/8 600 м
[Cb cap Ci fib]
-4.1 -10.0 63 -11 -10 1033.0 982.1
09 15.02 З 1 50 км {ливн. осадки} 9/9 1000 м
[Sc]
-3.8 -9.5 65 -6 -6 1031.6 980.8
12 15.02 ЮЗ 3 50 км {ливн. осадки} 9/9 1000 м
[Sc]
-2.7 -9.7 59 -7 -7 1031.0 980.5 -1.9 0.0
15 15.02 ЮЗ 4 50 км 9/9 1000 м
[Sc]
-2.4 -10.2 55 -8 -8 1029.6 979.1
18 15.02 ЮЗ 3 50 км 9/9 1000 м
[Sc]
-2.8 -10.2 57 -7 -7 1028.7 978.2
21 15.02 ЮЗ 2 50 км 3/0
[Ci fib]
-6.5 -13.1 59 -11 -11 1028.5 977.4
00 16.02 ЮВ 1 50 км 8/0
[Ci fib]
-10.5 -14.9 70 -13 -13 1027.9 976.1 -10.6 11
03 16.02 В 2 50 км 9/0
[Ci fib]
-8.2 -14.5 60 -12 -11 1026.2 974.9 -12.0
06 16.02 ЮЗ 6-10
{13}
50 км позёмок 9/0
[Ac lent Ci fib]
-0.8 -12.5 41 -7 -6 1023.7 973.7
09 16.02 ЮЗ 5
{10}
50 км {метель} 9/0
[Ac lent Ci fib]
+0.3 -12.5 38 -5 -5 1022.2 972.7
12 16.02 Ю 4
{10}
50 км {метель} 9/3 600 м
[Cb cap Ac lent Ci fib]
-1.3 -14.1 37 -6 -6 1021.7 971.8 +0.6
15 16.02 Ю 4 50 км 9/0
[Ac trans]
-1.7 -13.7 39 -7 -7 1021.7 971.7
18 16.02 ЮЗ 4 50 км 9/8 600 м
[Cb cap Ac trans]
-1.7 -15.0 35 -7 -7 1019.7 969.8
21 16.02 ЮЗ 3
{11}
50 км 6/6 1000 м
[Sc]
-3.0 -15.1 39 -7 -7 1019.4 969.3
00 17.02 ЮЗ 4
{11}
50 км 4/0
[Ac trans]
-3.9 -14.4 44 -9 -9 1019.5 969.2 -3.9 11
03 17.02 ЮЗ 3 50 км 9/1 1000 м
[Cu hum Ac trans Ci fib]
-3.2 -13.1 46 -8 -7 1019.3 969.2 -4.5
06 17.02 ЮЗ 6
{13}
50 км позёмок 8/1 1000 м
[Cu hum Ac trans Ci fib]
-1.3 -10.7 49 -8 -7 1017.5 967.9
09 17.02 ЮЗ 4
{13}
50 км {метель} 9/0
[Ac lent Ci fib]
+0.7 -10.5 43 -4 -3 1015.1 965.9
12 17.02 Ю 3
{13}
50 км {метель} 1/0
[Ac lent]
-1.0 -11.2 46 -5 -5 1014.6 965.1 +1.1
15 17.02 Ю 2 50 км 10/0
[Cs]
-3.2 -13.1 46 -7 -7 1013.5 963.7
18 17.02 Ю 2 50 км 10/0
[Cs]
-4.5 -13.7 49 -8 -8 1012.8 962.9
21 17.02 ЮВ 1 50 км 8/3 1000 м
[Cu hum Ac lent Ci fib]
-5.2 -14.3 49 -7 -7 1012.3 962.2
00 18.02 В 1 50 км 6/3 1000 м
[Cu hum Ac lent Ci fib]
-2.9 -14.2 41 -4 -4 1010.2 960.6 -6.1 11
03 18.02 Ю 2 50 км 9/0
[Ac lent Ci fib]
-1.9 -17.6 29 -5 -4 1010.0 960.6
06 18.02 Ю 3
{10}
50 км 9/0
[Ac lent Ci fib]
+0.6 -17.2 25 -3 -1 1008.5 959.6
09 18.02 ЮЗ 4
{12}
50 км 9/0
[Ac lent Ci fib]
+2.2 -13.7 30 -2 -1 1007.5 958.9
12 18.02 Ю 4
{12}
50 км 9/0
[Ac lent Ci fib]
+1.2 -14.9 29 -3 -3 1007.9 959.0 +3.0
15 18.02 ЮЗ 6-11
{11}
50 км 9/0
[Ac lent Ci fib]
+1.0 -12.2 37 -4 -4 1008.1 959.2
18 18.02 ЮЗ 5
{13}
50 км 9/0
[Ac lent Ci fib]
+1.1 -12.6 35 -4 -4 1008.7 959.8
21 18.02 ЮЗ 4 50 км 9/3 600 м
[Cb cap Ci fib]
+0.5 -12.7 36 -4 -4 1009.8 960.9
00 19.02 Ю 4 50 км 9/1 600 м
[Cb cap Ac lent Ci fib]
+0.2 -14.0 33 -4 -4 1011.2 962.0 0.0 8
03 19.02 ЮЗ 5 50 км 9/4 600 м
[Cb cap Ci fib]
+1.2 -10.2 42 -4 -3 1012.6 963.7 -0.2
06 19.02 З 7-10
{15}
50 км позёмок 9/3 1000 м
[Cu med, cong Ci fib]
+2.2 -6.6 52 -4 -3 1014.2 965.4

 

Местоположение метеостанции Шалинское (Красноярский край, Россия): широта 55.72 долгота 93.75 высота над уровнем моря 399 м.

В архиве по умолчанию представлена погода в Шалинском за последнюю неделю. Архивные данные за месяц целиком и за предыдущие месяцы, начиная с января 2011 года, Вы можете получить, выбрав интересующий диапазон дат из раскрывающегося списка и нажав кнопку "Ввод!".


*Определитесь, кто Вы:
робот инопланетянин человек

Внимание! Время в таблицах - всемирное. Для получения местного времени необходимо прибавить поправку, которая равна 7 ч.

Смотрите также архив погоды в соседних городах и на ближайших метеорологических станциях:

Погода в Уяре (Красноярский край, Россия) (37 км)
Погода в Железногорске (Красноярский край, Россия) (61 км)
Погода в Роевом Ручье (Красноярский край, Россия) (69 км)
Погода в Анастасино (Красноярский край, Россия) (71 км)
Погода в Красноярске (Красноярский край, Россия) (71 км)
Погода в Минино (Красноярский край, Россия) (75 км)
Погода в Погорельском Бору (Красноярский край, Россия) (88 км)
Погода в Агинском (Красноярский край, Россия) (88 км)
Погода в Сухобузимском (Красноярский край, Россия) (92 км)
Погода в Емельяново (Красноярский край, Россия) (93 км)

Пояснения к столбцам:

Ветер - указаны скорость ветра в м/с - средняя за 10 мин, порывы в срок и между сроками (в фигурных скобках) и направление, откуда дует ветер: С - северный, СВ - северо-восточный, В - восточный, ЮВ - юго-восточный, Ю - южный, ЮЗ - юго-западный, З - западный, СЗ - северо-западный.
Видимость - горизонтальная дальность видимости в метрах или километрах. При видимости от 1 до 10 км при отсутствии осадков обычно наблюдается дымка, при ухудшении видимости до 1 км и менее - туман. В сухую погоду видимость может ухудшаться дымом, пылью или мглою.
Явления - указаны атмосферные явления, наблюдавшиеся в срок или в последний час перед сроком; фигурными скобками обозначены явления, наблюдавшиеся между сроками (за 1-3 часа до срока); квадратными скобками обозначены град или гололедные отложения с указанием их диаметра в мм.
Облачность - указаны через наклонную черту общая и нижняя облачность в баллах и высота нижней границы облаков в метрах; квадратными скобками обозначены формы облаков: Ci - перистые, Cs - перисто-слоистые, Cc - перисто-кучевые, Ac - высококучевые, As - высокослоистые, Sc - слоисто-кучевые, Ns - слоисто-дождевые, Cu - кучевые, Cb - кучево-дождевые. Подробнее классификацию облаков см. в Атласе облаков (PDF).
T - Температура воздуха - температура, измеренная на высоте 2 м над землей.
Td - Температура точки росы - температура, при понижении до которой содержащийся в воздухе водяной пар достигнет насыщения.
f - Относительная влажность воздуха - влажноcть воздуха, измеренная на высоте 2 м над землей.
Te - Эффективная температура - температура, которую ощущает одетый по сезону человек в тени. Характеристика душности погоды. При расчете учитывается влияние влажности воздуха и скорости ветра на теплоощущения человека.
Tes - Эффективная температура на солнце - температура, которую ощущает человек, с поправкой на солнечный нагрев. Характеристика знойности погоды. Зависит от высоты солнца над горизонтом, облачности и скорости ветра. Ночью, в пасмурную погоду, а также при ветре 12 м/с и более поправка равна нулю.
P - Атмосферное давление - приведенное к уровню моря атмосферное давление.
Po - Атмосферное давление - измеренное на уровне метеостанции атмосферное давление.
Tmin - Минимальная температура - минимум температуры воздуха на высоте 2 м над землей.
Tmax - Максимальная температура - максимум температуры воздуха на высоте 2 м над землей.
R - Количество осадков - Количество выпавших осадков за период времени, мм. При наведении курсора мыши на число - период времени, за который выпало указанное количество осадков.
R24 - Количество осадков - Количество выпавших осадков за 24 часа, мм.
S - Снежный покров - Высота снежного покрова, см. При наведении курсора мыши на число - состояние снежного покрова и степень покрытия местности в баллах.